Location: Newark
(23.5328°S, 46.7919°W)
Time: 14:15:07
(UTC+00:00)

Envisat - Visible Passes

Search period start: 23 June 2021 00:00
Search period end: 03 July 2021 00:00
Orbit: 764 x 766 km, 98.1° (Epoch: 22 June)

Date Brightness Start Highest point End Pass type
(mag) Time Alt. Az. Time Alt. Az. Time Alt. Az.
23 Jun 3.5 07:35:25 10° NNE 07:40:23 56° ESE 07:41:45 42° SSE visible
23 Jun 4.9 09:19:22 10° W 09:19:33 10° W 09:19:44 10° W visible
23 Jun 5.7 21:34:40 10° SW 21:37:23 15° WSW 21:40:05 10° WNW visible
24 Jun 5.1 06:59:56 10° ENE 07:03:47 22° ESE 07:04:26 21° ESE visible
24 Jun 3.9 08:38:14 10° NNW 08:42:32 28° W 08:44:37 21° WSW visible
24 Jun 4.6 20:56:11 10° S 21:00:52 36° WSW 21:05:29 10° NW visible
25 Jun 2.8 08:00:37 10° N 08:05:40 75° WNW 08:07:18 44° SSW visible
26 Jun 4.1 07:24:12 10° NE 07:28:57 42° ESE 07:29:59 37° SE visible
26 Jun 4.7 09:05:23 10° NW 09:08:01 14° W 09:10:11 11° WSW visible
26 Jun 5.6 21:22:28 10° SSW 21:26:01 19° WSW 21:29:34 10° WNW visible
27 Jun 5.4 06:49:16 10° ENE 06:52:25 17° ESE 06:52:41 17° ESE visible
27 Jun 3.5 08:26:23 10° NNW 08:31:02 37° W 08:32:53 28° WSW visible
28 Jun 2.9 07:49:09 10° NNE 07:54:13 83° ESE 07:55:34 51° S visible
29 Jun 4.5 07:13:06 10° NE 07:17:33 31° ESE 07:18:15 30° ESE visible
29 Jun 4.4 08:52:55 10° NW 08:56:29 19° W 08:58:27 16° WSW visible
29 Jun 5.2 21:10:30 10° SSW 21:14:39 25° WSW 21:18:45 10° NW visible
30 Jun 5.8 06:39:02 10° E 06:40:58 12° ESE 06:40:58 12° ESE visible
30 Jun 3.1 08:14:39 10° N 08:19:33 50° W 08:21:09 37° SW visible
01 Jul 3.4 07:37:47 10° NNE 07:42:47 62° ESE 07:43:51 50° SSE visible
01 Jul 5.8 21:37:26 10° SW 21:39:45 13° WSW 21:42:04 10° W visible
02 Jul 5.0 07:02:09 10° NE 07:06:10 24° ESE 07:06:33 24° ESE visible
02 Jul 4.0 08:40:48 10° NNW 08:44:57 25° W 08:46:45 21° WSW visible
02 Jul 4.8 20:58:41 10° S 21:03:15 33° WSW 21:07:46 10° NW visible
